Tracking 29892 objects as of 21-Nov-2024
HD Live streaming from Space Station
objects crossing your sky now

FENGYUN 1C DEB

Track FENGYUN 1C DEB now!
10-day predictions


NORAD ID: 30849
Int'l Code: 1999-025AWK
Perigee: 810.4 km
Apogee: 883.2 km
Inclination: 99.1 °
Period: 101.7 minutes
Semi major axis: 7217 km
RCS: 0.0202 m2 (small)
Launch date: May 10, 1999
Source: People's Republic of China (PRC)
Launch site: Taiyaun Space Center, China (TSC)

Note: This is SATELLITE DEBRIS
Your satellite tracking list
Your tracking list is empty




NASA's NSSDC Master Catalog

Two Line Element Set (TLE):
1 30849U 99025AWK 24322.38581145  .00003406  00000-0  17354-2 0  9992
2 30849  99.0746   8.7650 0050415  34.8256  96.2267 14.15784251908423
Source of the keplerian elements: AFSPC